CZ-2C DEB, 40291

Orbit data source: Space-Track

CZ-2C DEB, 40291 is space debris in SSO originally from a launch on Mon, 27 Oct 2014 UTC launched from the Jiuquan Satellite Launch Center, China (JSC). Debris objects in space refer to the collection of defunct objects orbiting the Earth. Examples of debris include non-operational satellites, rocket bodies, and fragments generated from explosions, collisions, or faulty payload assembly.

Loading next visibility...
Identifier
40291, 2014-066F
Orbit
SSO
Last TLE update
12 hours ago
Origin
Manufacturer
CALT
Mission
Spacecraft
Bus & Motor
Unknown
Mass
1 kg wet, 1 kg dry
Launch date (UTC)
2014-10-27 (11 years ago)
Launch vehicle
Unknown
Launch site
Jiuquan Satellite Launch Center, China (JSC)
Object type
Payload
Rocket body
Debris
Shape & HBR
Cone, 0.2 m
Radar Cross Section
0.025 m², Small (<0.1 m²)

Expand to show TLE details & history

TLE from 12 hours ago
0 CZ-2C DEB
1 40291U 14066F   25181.89817874  .00001076  00000-0  35241-3 0  9994
2 40291  98.2500 179.2403 0156305 247.3831 111.0756 14.33728452555337
Epoch: 2025-06-30T21:33Z
TLE epoch observation values (Epoch: 2025-06-30T21:33:22.643Z)
Latitude
-0.00007°
Longitude
-63.30542°
Altitude
823.991 km
Speed
7.419 km/s
True Right ascension
11h 56m 57s
True Declination
0° 00' 00"
Sunlit
Object was in daylight at epoch
Visualization orbit readout
Latitude
81.67129°
Longitude
-162.67995°
Altitude
893.38 km
Speed
7.36 km/s
Apparent Right ascension
08h 42m 50s
Apparent Declination
29° 26' 26"
Sunlit
Object is in daylight
Visualization observer readout
Local Sidereal Time
21:21:20
Azimuth
8.919° NNE
Elevation
-20.069°
Doppler factor
1
Orbital elements
Apogee altitude
888.242 km
Perigee altitude
664.584 km
Semi-major axis
7,154.55 km
Eccentricity
0.01563
Inclination
98.25°
RAAN
179.2403°
Arg. of periapsis
247.3831°
True anomaly
Unknown
Mean anomaly
111.0756°
Eccentric anomaly
Unknown
Mean motion
3.58649 °/min
Orbital period
100.38 mins
BSTAR
0.00035241
Loading maneuver chart data...
Loading SW <> Apogee altitude chart data...
Loading historical data...
Loading historical data...
Loading historical data...
Loading historical data...
Loading historical data...
Loading historical data...
Loading historical data...
Other satellites on launch #66 in the year 2014 (2014-10-27 UTC)

CZ-2C DEB Visibility forecast

Observer location: undefined°, undefined°

Span
Click to sort rows by Start time (UTC) header in descending order
Start Az.
Max El. time (UTC)
Max El. Az.
Max El.
End time (UTC)
End Az.
7 mins2025-07-01 11:34:00.988Z46.661° ENE2025-07-01 11:38:00.988Z96.517° ESE18.747°2025-07-01 11:41:00.988Z134.579° SE
8 mins2025-07-01 13:14:00.988Z353.465° N2025-07-01 13:17:00.988Z298.42° NW36.873°2025-07-01 13:22:00.988Z216.098° SW
8 mins2025-07-01 22:50:00.988Z113.874° SE2025-07-01 22:53:00.988Z72.875° E25.416°2025-07-01 22:58:00.988Z9.977° NNE
8 mins2025-07-02 00:29:00.988Z203.855° SW2025-07-02 00:32:00.988Z252.034° W32.748°2025-07-02 00:37:00.988Z328.703° NNW
|